DateTimeUTC,F1_A11,F1_S11,BsB_S11,BsG_S11,BsR_S11,BbsB_S11,BbsG_S11,BbsR_S11,BaB_A11,BaG_A11,BaR_A11,Tu_S11,T_S11,Uu_S11,U_S11,P_S11,T1_A11
2021-07-14T00:00:00Z,00000200,20000000,,,,,,,0000.34,-000.12,0000.04,19.7,26.4,10.2,06.8,0665.8,31.2
2021-07-14T00:01:00Z,00000200,20000000,,,,,,,-000.08,0000.24,-000.20,19.7,26.4,10.2,06.8,0665.8,31.2
2021-07-14T00:02:00Z,00000200,20000000,,,,,,,0000.10,-000.07,0000.22,19.7,26.4,10.2,06.8,0665.8,31.1
2021-07-14T00:03:00Z,00000200,60000000,,,,,,,0000.32,0000.17,0000.01,19.7,26.4,10.2,06.8,0665.8,31.1
2021-07-14T00:04:00Z,00000200,40000000,0001.31,0000.91,0000.53,0000.23,0000.03,-000.09,0000.08,0000.16,0000.05,19.7,26.2,10.4,07.0,0666.7,31.1
2021-07-14T00:05:00Z,00000200,00000000,0001.80,0000.84,0000.51,0000.16,0000.08,-000.11,-000.09,0000.11,0000.51,19.8,26.2,10.5,07.1,0666.7,31.2
2021-07-14T00:06:00Z,00000200,00000000,0001.26,0000.77,0000.33,0000.10,-000.12,0000.25,0000.54,0000.06,0000.07,19.8,26.2,10.5,07.1,0666.7,31.2
2021-07-14T00:07:00Z,00000200,00000000,0001.47,0000.68,0000.71,0000.03,0000.42,0000.27,-000.25,0000.38,0000.02,19.8,26.2,10.6,07.2,0666.7,31.1
2021-07-14T00:08:00Z,00000200,00000000,0001.90,0000.82,0000.51,0000.05,0000.20,0000.22,0000.34,0000.37,0000.14,19.8,26.1,10.5,07.1,0666.7,31.1
2021-07-14T00:09:00Z,00000200,00000000,0002.49,0000.65,0000.43,0000.23,0000.15,-000.06,0000.47,-000.27,0000.04,19.8,26.1,10.5,07.2,0666.7,31.1
2021-07-14T00:10:00Z,00000200,00000000,0002.17,0000.98,0000.54,0000.26,0000.02,-000.03,0000.04,0000.22,0000.02,19.8,26.1,10.5,07.2,0666.7,31.1
2021-07-14T00:11:00Z,00000200,00000000,0001.37,0000.71,0000.49,0000.14,0000.05,0000.01,-000.04,0000.49,0000.52,19.8,26.1,10.4,07.1,0666.7,31.1
2021-07-14T00:12:00Z,00000200,00000000,0000.98,0000.82,0000.60,0000.54,0000.17,0000.15,0000.27,-000.01,-000.10,19.8,26.1,10.5,07.2,0666.7,31.1
2021-07-14T00:13:00Z,00000200,00000000,0001.81,0000.80,0000.71,-000.32,0000.38,0000.05,0000.39,0000.01,0000.15,19.8,26.1,10.5,07.1,0666.7,31.1
2021-07-14T00:14:00Z,00000200,00000000,0001.11,0000.72,0000.88,0000.51,0000.47,0000.04,0000.18,0000.36,0000.20,19.8,26.1,10.5,07.2,0666.7,31.1
2021-07-14T00:15:00Z,00000200,00000000,0001.95,0001.09,0000.39,0000.33,0000.27,0000.29,0000.10,0000.30,-000.06,19.8,26.1,10.5,07.2,0666.7,31.1
2021-07-14T00:16:00Z,00000200,00000000,0000.99,0000.76,0000.62,0000.09,0000.27,0000.07,-000.03,-000.02,0000.17,19.8,26.1,10.6,07.3,0666.7,31.2
2021-07-14T00:17:00Z,00000200,00000000,0000.86,0000.40,0000.33,0000.36,0000.39,0000.14,0000.35,-000.13,0000.04,19.8,26.1,10.6,07.2,0666.7,31.1
2021-07-14T00:18:00Z,00000200,00000000,0001.65,0000.80,0000.47,0000.35,0000.15,0000.24,0000.25,0000.40,0000.49,19.8,26.1,10.5,07.2,0666.7,31.2
2021-07-14T00:19:00Z,00000200,00000000,0002.09,0001.07,0000.33,0000.35,0000.31,-000.16,-000.09,0000.30,-000.01,19.8,26.0,10.6,07.2,0666.7,31.1
2021-07-14T00:20:00Z,00000200,00000000,0001.27,0000.98,0000.69,0000.40,0000.23,0000.14,0000.34,-000.35,0000.12,19.8,26.0,10.6,07.2,0666.7,31.2
2021-07-14T00:21:00Z,00000200,00000000,0002.31,0000.60,0000.33,0000.24,0000.15,-000.06,0000.05,0000.78,0000.02,19.8,26.0,10.6,07.2,0666.7,31.1
2021-07-14T00:22:00Z,00000200,00000000,0001.86,0001.00,0000.67,0000.09,0000.42,0000.06,0000.54,-000.11,0000.45,19.8,26.0,10.6,07.2,0666.7,31.1
2021-07-14T00:23:00Z,00000200,00000000,0001.46,0000.71,0000.35,-000.11,0000.07,0000.07,0000.03,0000.19,-000.01,19.8,26.0,10.6,07.3,0666.7,31.2
2021-07-14T00:24:00Z,00000200,00000000,0001.05,0000.66,0000.51,0000.26,0000.31,0000.28,0000.12,-000.05,-000.17,19.8,26.0,10.5,07.2,0666.7,31.1
2021-07-14T00:25:00Z,00000200,00000000,0001.74,0000.63,0000.56,0000.22,0000.12,0000.21,0000.25,0000.28,0000.35,19.8,26.0,10.5,07.2,0666.7,31.2
2021-07-14T00:26:00Z,00000200,00000000,0001.85,0001.10,0000.43,-000.22,0000.03,0000.23,0000.25,0000.14,0000.28,19.8,26.0,10.5,07.2,0666.7,31.1
2021-07-14T00:27:00Z,00000200,00000000,0000.97,0000.61,0000.47,0000.24,0000.49,-000.13,0000.23,0000.19,-000.11,19.7,26.0,10.5,07.2,0666.7,31.1
2021-07-14T00:28:00Z,00000200,00000000,0001.33,0000.94,0000.37,-000.45,0000.10,-000.05,-000.02,0000.12,0000.04,19.7,26.0,10.6,07.3,0666.7,31.1
2021-07-14T00:29:00Z,00000200,00000000,0001.32,0000.56,0000.12,0000.84,0000.16,0000.09,-000.28,-000.13,0000.17,19.7,26.0,10.1,06.9,0666.7,31.1
2021-07-14T00:30:00Z,00000200,00000000,0001.25,0000.50,0000.85,0000.21,0000.07,-000.18,0000.35,0000.26,-000.34,19.7,26.0,10.1,06.9,0666.7,31.1
2021-07-14T00:31:00Z,00000200,00000000,0001.25,0000.24,0000.46,-000.04,0000.31,0000.24,0000.10,0000.28,0000.28,19.7,26.0,10.1,06.9,0666.7,31.2
2021-07-14T00:32:00Z,00000200,00000000,0001.23,0000.65,0000.76,0000.53,0000.38,-000.03,0000.31,-000.27,0000.35,19.7,26.0,10.2,07.0,0666.7,31.2
2021-07-14T00:33:00Z,00000200,00000000,0001.71,0000.61,0000.45,0000.11,0000.11,0000.02,0000.15,0000.28,-000.10,19.7,26.0,10.1,06.9,0666.7,31.1
2021-07-14T00:34:00Z,00000200,00000000,0001.67,0000.74,0000.73,0000.26,0000.25,0000.02,0000.32,0000.27,0000.29,19.7,26.0,10.2,06.9,0666.7,31.1
2021-07-14T00:35:00Z,00000200,00000000,0001.96,0001.33,0000.55,-000.31,0000.12,0000.25,0000.21,0000.20,0000.38,19.7,26.0,10.1,06.9,0666.7,31.1
2021-07-14T00:36:00Z,00000200,00000000,0001.44,0000.82,0000.27,0000.78,0000.39,-000.22,0000.23,0000.39,0000.17,19.7,26.0,10.2,06.9,0666.7,31.1
2021-07-14T00:37:00Z,00000200,00000000,0002.19,0001.16,0000.72,0000.43,0000.37,0000.19,0000.29,-000.24,0000.08,19.7,25.9,10.3,07.0,0666.7,31.1
2021-07-14T00:38:00Z,00000200,00000000,0001.38,0000.84,0000.37,0000.57,0000.20,0000.27,0000.32,0000.85,0000.08,19.7,25.9,10.4,07.1,0666.7,31.1
2021-07-14T00:39:00Z,00000200,00000000,0000.93,0000.89,0000.22,-000.03,0000.18,0000.07,-000.10,0000.12,0000.46,19.7,25.9,10.4,07.1,0666.7,31.1
2021-07-14T00:40:00Z,00000200,00000000,0001.93,0000.78,0000.61,0000.52,0000.33,-000.07,0000.48,-000.02,-000.09,19.7,25.9,10.5,07.2,0666.7,31.1
2021-07-14T00:41:00Z,00000200,00000000,0001.68,0000.67,0000.51,0000.95,0000.03,-000.14,0000.09,0000.13,-000.14,19.6,25.9,10.5,07.2,0666.7,31.1
2021-07-14T00:42:00Z,00000200,00000000,0001.50,0000.91,0000.48,0000.22,0000.15,0000.12,0000.40,0000.32,0000.31,19.7,25.9,10.5,07.2,0666.7,31.1
2021-07-14T00:43:00Z,00000200,00000000,0001.11,0000.83,0000.42,-000.19,-000.06,0000.14,0000.08,0000.35,0000.50,19.6,25.9,10.6,07.2,0666.6,31.1
2021-07-14T00:44:00Z,00000200,00000000,0001.38,0000.95,0000.77,0000.17,0000.21,-000.11,0000.08,0000.01,0000.01,19.6,25.9,10.7,07.3,0666.6,31.2
2021-07-14T00:45:00Z,00000200,00000000,0001.98,0000.78,0000.48,-000.10,0000.20,-000.17,0000.24,0000.15,-000.25,19.6,25.9,10.6,07.3,0666.6,31.1
2021-07-14T00:46:00Z,00000200,00000000,0001.43,0000.83,0000.54,0000.29,0000.31,-000.06,0000.03,0000.22,0000.33,19.6,25.9,10.5,07.2,0666.6,31.1
2021-07-14T00:47:00Z,00000200,00000000,0002.09,0000.73,0000.61,0000.27,0000.23,0000.12,0000.42,0000.18,0000.44,19.6,25.9,10.5,07.2,0666.6,31.1
2021-07-14T00:48:00Z,00000200,00000000,0002.00,0001.12,0000.48,0000.27,0000.27,-000.05,-000.07,0000.16,-000.17,19.6,25.9,10.6,07.2,0666.6,31.1
2021-07-14T00:49:00Z,00000200,00000000,0001.86,0001.01,0000.61,-000.03,0000.06,-000.10,0000.26,0000.10,0000.35,19.6,25.9,10.7,07.3,0666.6,31.1
2021-07-14T00:50:00Z,00000200,00000000,0001.32,0000.67,0000.13,0000.15,0000.29,0000.11,0000.27,0000.23,-000.42,19.6,25.9,10.7,07.3,0666.6,31.1
2021-07-14T00:51:00Z,00000200,00000000,0001.88,0000.83,0000.76,0000.23,0000.19,0000.44,0000.15,0000.15,0000.59,19.6,25.8,10.7,07.3,0666.6,31.1
2021-07-14T00:52:00Z,00000200,00000000,0001.47,0000.94,0000.35,0000.62,-000.03,0000.09,0000.23,-000.03,0000.32,19.6,25.9,10.8,07.3,0666.5,31.1
2021-07-14T00:53:00Z,00000200,00000000,0001.49,0000.92,0000.46,-000.01,0000.54,0000.34,0000.15,0000.26,-000.10,19.6,25.8,10.8,07.4,0666.5,31.1
2021-07-14T00:54:00Z,00000200,00000000,0001.56,0001.24,0000.44,0000.45,0000.51,0000.24,0000.09,0000.18,0000.18,19.6,25.8,10.7,07.3,0666.5,31.1
2021-07-14T00:55:00Z,00000200,00000000,0000.92,0000.43,0000.05,0000.63,0000.07,-000.46,0000.10,0000.34,-000.04,19.6,25.8,10.6,07.2,0666.5,31.1
2021-07-14T00:56:00Z,00000200,00000000,0001.48,0000.67,0000.15,0000.31,0000.42,-000.19,0000.01,-000.17,0000.17,19.6,25.8,10.4,07.1,0666.5,31.1
2021-07-14T00:57:00Z,00000200,40000000,,,,,,,0000.21,0000.22,-000.19,19.6,25.9,10.6,07.2,0666.6,31.2
2021-07-14T00:58:00Z,00000200,60000000,,,,,,,0000.01,-000.23,0000.09,19.3,26.0,10.6,07.0,0665.5,31.2
2021-07-14T00:59:00Z,00000200,20000000,,,,,,,0000.09,0000.09,0000.14,19.3,26.1,10.6,07.0,0665.5,31.1
